Regional Weather Roundup
Issued by NWS

Home | Current Version | Previous Version | Text Only | Print | Product List | Glossary On
Versions: 1 2 3 4 5 6 7 8 9 10 11 12 13 14 15 16 17 18 19 20 21 22 23 24 25 26 27 28 29 30 31 32 33 34 35 36 37 38 39 40 41 42 43 44 45 46 47 48 49 50
000
ASUS43 KMPX 241101
RWRMN
WEATHER ROUNDUP FOR MINNESOTA
NATIONAL WEATHER SERVICE TWIN CITIES/CHANHASSEN MN
600 AM CDT SAT JUN 24 2017


NOTE: "FAIR" INDICATES FEW OR NO CLOUDS BELOW 12,000 FEET WITH NO
SIGNIFICANT WEATHER AND/OR OBSTRUCTIONS TO VISIBILITY. N/A MEANS
CURRENT SKY AND/OR WEATHER CONDITIONS ARE NOT AVAILABLE.

MNZ060>063-068>070-241200-
   Twin Cities Metro

CITY           SKY/WX    TMP DP  RH WIND       PRES   REMARKS
TWIN CITIES    PTCLDY    55  45  68 NW12      29.98R
ST PAUL        CLEAR     55  47  74 W12       29.98R
CRYSTAL        PTCLDY    53  44  71 W7        29.97R
BLAINE         MOCLDY    54  46  76 W9        29.97R
LAKEVILLE      CLEAR     50  45  81 W7        29.99R
EDEN PRAIRIE   MOCLDY    56  43  61 W12       29.98R
SOUTH ST PAUL  CLEAR     55  46  73 W9        29.97S
LAKE ELMO      FAIR      54  45  71 NW5       29.98R
$$
MNZ001>005-007-008-013>017-022>024-027-028-241200-
   Northwest Minnesota

CITY           SKY/WX    TMP DP  RH WIND       PRES   REMARKS
BEMIDJI        CLOUDY    49  43  79 W10       29.94R
HALLOCK        CLOUDY    50  46  87 NW12      29.95R
ROSEAU         PTCLDY    46  43  87 W7        29.92R
WARROAD        PTCLDY    46  43  87 SW5       29.92R
CROOKSTON      CLOUDY    48  45  87 NW6       29.97S
FOSSTON        CLOUDY    46  41  81 W12       29.97R
DETROIT LAKES  PTCLDY    46  39  76 W8        29.99S
MOORHEAD       CLOUDY    52  39  62 W15       30.00S
PARK RAPIDS    CLEAR     47  39  74 W9        29.96R
MAHNOMEN       CLOUDY    46  41  84 W7        29.97S
$$
MNZ006-009>011-018-025>026-241200-
   North Central Minnesota

CITY           SKY/WX    TMP DP  RH WIND       PRES   REMARKS
BAUDETTE       CLOUDY    49  48  97 W8        29.90R
FLAG ISLAND    PTCLDY    50  46  87 W10       29.87R
INTL FALLS     CLOUDY    52  49  89 W7        29.87R
WASKISH        CLOUDY    52  46  82 W13G18    29.91S
BIG FORK       DRIZZLE   52  48  87 CALM      29.90S
LONGVILLE      CLOUDY    48  43  81 W5        29.94R
GRAND RAPIDS   CLOUDY    51  45  79 W8        29.93R
CRANE LAKE     CLOUDY    52  48  87 W3        29.87S
ORR            CLOUDY    52  46  82 W5        29.85S
COOK           CLOUDY    52  48  87 W7        29.88S
WALKER         CLOUDY    48  42  79 W6        29.95R
$$
MNZ012-019>021-037-241200-
   Northeast Minnesota

CITY           SKY/WX    TMP DP  RH WIND       PRES   REMARKS
DULUTH         CLOUDY    52  48  86 NW10      29.87R
ELY            CLOUDY    52  50  93 W5        29.85S
HIBBING        CLOUDY    51  47  86 W9G18     29.88R
EVELETH        CLOUDY    53  47  82 W8        29.89R
DULUTH HARBOR  CLOUDY    57  50  77 W9        29.88S
TWO HARBORS    CLOUDY    57  50  77 NW5       29.84S
SILVER BAY     CLOUDY    55  52  88 CALM      29.83S
GRAND MARAIS     N/A     55  50  83 SW7       29.79R
G MARAIS ARPRT CLOUDY    52  48  87 CALM      29.82S
$$
MNZ029>031-032-039>041-046>048-054>057-064-241200-
   West Central Minnesota

CITY           SKY/WX    TMP DP  RH WIND       PRES   REMARKS
FERGUS FALLS   CLEAR     43  39  87 W6        30.01R
WHEATON        MOCLDY    50  39  66 W8        30.06R
MORRIS         CLEAR     46  43  87 W8        30.02S
ALEXANDRIA     CLEAR     48  41  76 W9        30.02R
ELBOW LAKE     FAIR      44  41  89 NW7       30.02S
WADENA         CLEAR     46  39  76 W3        29.98R
GLENWOOD       CLEAR     46  41  81 W7        30.02R
APPLETON       CLEAR     46  43  87 W7        30.04R
BENSON         CLEAR     45  41  87 NW5       30.05R
ORTONVILLE     PTCLDY    48  43  81 W3        30.05R
MADISON        CLEAR     48  43  81 W6        30.05S
WILLMAR        FAIR      48  45  87 W6        30.04S
$$
MNZ033>034-036-042>043-049>051-058-059-241200-
   Central Minnesota

CITY           SKY/WX    TMP DP  RH WIND       PRES   REMARKS
ST CLOUD       PTCLDY    50  42  74 W7        29.99R
SAUK CENTRE    FAIR      45  41  85 W5        30.01R
PAYNESVILLE    CLEAR     44  44 100 W5        30.02S
AITKIN         CLOUDY    46  43  87 W3        29.93R
PINE RIVER     MOCLDY    46  41  81 CALM      29.99R
BRAINERD       CLOUDY    52  42  69 W12G18    29.96R
STAPLES        CLEAR     46  39  76 W10       29.98R
LONG PRAIRIE   FAIR      46  41  81 SW6       30.00S
LITTLE FALLS   PTCLDY    46  37  71 CALM      29.99R
LITCHFIELD     CLEAR     52  45  76 W8        30.02R
BUFFALO        CLOUDY    53  44  70 W8        30.01R
MAPLE LAKE     MOCLDY    53  46  76 W6        30.01R
HUTCHINSON     CLOUDY    49  45  86 W9        30.03R
$$
MNZ037-044-045-052-053-241200-
   East Central Minnesota

CITY           SKY/WX    TMP DP  RH WIND       PRES   REMARKS
PRINCETON      MOCLDY    52  43  71 W5        29.98R
MORA           CLEAR     46  41  81 W7        29.97R
CAMBRIDGE      MOCLDY    54  43  66 W5        29.95R
RUSH CITY      CLEAR     48  43  81 W5        29.96R
MOOSE LAKE     CLOUDY    46  43  87 W5        29.91R
HINCKLEY       FAIR      45  45 100 W7        29.94R
CLOQUET        PTCLDY    50  45  81 W8        29.89R
MCGREGOR         N/A     50  43  76 W7        29.93R
$$
MNZ071>073-080-081-089-090-097-098-241200-
   Southwest Minnesota

CITY           SKY/WX    TMP DP  RH WIND       PRES   REMARKS
MONTEVIDEO     CLEAR     46  41  81 NW3       30.05S
GRANITE FALLS  CLEAR     46  43  87 SW7       30.06S
CANBY          CLEAR     49  42  76 CALM      30.07S
MARSHALL       PTCLDY    47  42  83 W8        30.07S
REDWOOD FALLS  CLEAR     49  41  74 W9        30.05R
OLIVIA         CLEAR     46  43  87 W9        30.04R
PIPESTONE      CLEAR     46  41  81 W6        30.09S
WINDOM         CLEAR     46  43  87 W6        30.07S
WORTHINGTON    CLEAR     45  42  89 W9        30.10S
JACKSON        CLEAR     46  41  81 CALM      30.08S
TRACY          CLEAR     51  42  71 W7        30.08R
SLAYTON        CLEAR     46  42  83 W10       30.09S
$$
MNZ065>067-074>077-082>085-091>093-241200-
   South Central Minnesota

CITY           SKY/WX    TMP DP  RH WIND       PRES   REMARKS
MANKATO        CLEAR     51  44  77 W9        30.04R
NEW ULM        CLEAR     48  43  81 W9        30.04S
ST JAMES       CLEAR     48  43  81 W8        30.06S
FAIRMONT       CLEAR     51  43  74 W12       30.07R
GLENCOE        PTCLDY    52  46  82 W9        30.01S
FARIBAULT      CLEAR     52  45  76 W12G17    30.01R
OWATONNA       CLEAR     50  45  81 W10       30.01R
WASECA         CLEAR     50  45  81 W8        30.04R
ALBERT LEA     CLEAR     52  45  76 W8        30.03R
$$
MNZ078>079-086>088-094>096-241200-
   Southeast Minnesota

CITY           SKY/WX    TMP DP  RH WIND       PRES   REMARKS
ROCHESTER      CLEAR     51  48  89 W10       29.99R
RED WING       PTCLDY    54  48  82 W5        29.96R
STANTON        CLEAR     52  46  80 W8        29.98R
DODGE CENTER   CLEAR     52  45  76 W10       30.00R
WINONA         CLEAR     54  48  82 NW5       29.96S
AUSTIN         CLEAR     52  45  76 W8        30.01R
PRESTON        CLEAR     51  47  85 W9        29.99S
$$
ABBREVIATIONS USED IN REMARKS
   TC - TEMPERATURES IN CELSIUS
  WCI - WIND CHILL INDEX
   HX - HEAT INDEX
  VSB - VISIBILITY
$$



USA.gov is the U.S. government's official web portal to all federal, state and local government web resources and services.